Satellite-Ground Cal/Val Site Overpasses Predictions

Prediction of Satellite NPP Overpassing Cal/Val Site: Antarctic Dome C

Ground Cal/Val Site Location: Latitude: -75.10, Longitude: 123.35; Satellite-Ground Site NADIR distance within 100 km.

Table of predicted overpasses for the next 14.0 days since TLE Epoch: 1/22/2013
Interval Starting Time Ending Time Minimum Distance Time Minimum Distance (km)
1 01/23/2013 14:59:10 01/23/2013 14:59:34 01/23/2013 14:59:22 57.52
2 01/24/2013 14:40:21 01/24/2013 14:40:46 01/24/2013 14:40:34 51.44
3 01/25/2013 07:42:03 01/25/2013 07:42:24 01/25/2013 07:42:14 68.67
4 01/26/2013 07:23:12 01/26/2013 07:23:39 01/26/2013 07:23:25 39.26
5 01/28/2013 15:05:41 01/28/2013 15:05:49 01/28/2013 15:05:45 95.74
6 01/29/2013 14:46:41 01/29/2013 14:47:10 01/29/2013 14:46:56 15.34
7 01/31/2013 07:29:34 01/31/2013 07:30:03 01/31/2013 07:29:48 2.96
8 02/03/2013 14:53:04 02/03/2013 14:53:33 02/03/2013 14:53:18 21.65
9 02/04/2013 14:34:23 02/04/2013 14:34:38 02/04/2013 14:34:31 85.32


NCC Satellite Cal/Val Overpasses Prediction Service
